DAL2912 KPBI-KJFK

Flight info

Callsign DAL2912
Flight time N/A
Altitude 41000
Route SLIDZ3 LENDS PELCN Y309 FLRDA SAGGY CHIEZ Q161 KALDA Q108 SIE CAMRN5
Aircraft B738/M-SDE2E3FGHIRWXY/LB1

Departure

Time 2026-05-05 18:17
Airport Palm Beach International Airport (KPBI)

Arrival

Time N/A
Airport John F. Kennedy International Airport (KJFK)
Time Latitude Longitude Altitude Speed Heading
2026-05-05 17:46 26.68639 -80.08993 21 ft 0 kts 92°
2026-05-05 18:07 26.68640 -80.09006 30 ft 3 kts 94°
2026-05-05 18:07 26.68642 -80.09031 21 ft 3 kts 98°
2026-05-05 18:08 26.68646 -80.09055 21 ft 3 kts 108°
2026-05-05 18:08 26.68655 -80.09077 24 ft 3 kts 134°
2026-05-05 18:08 26.68669 -80.09087 22 ft 1 kts 182°
2026-05-05 18:08 26.68670 -80.09087 22 ft 0 kts 183°
2026-05-05 18:11 26.68669 -80.09087 23 ft 1 kts 183°
2026-05-05 18:11 26.68641 -80.09088 21 ft 8 kts 182°
2026-05-05 18:12 26.68545 -80.09093 21 ft 19 kts 182°
2026-05-05 18:12 26.68410 -80.09100 21 ft 11 kts 183°
2026-05-05 18:12 26.68357 -80.09140 21 ft 11 kts 268°
2026-05-05 18:12 26.68361 -80.09228 21 ft 13 kts 273°
2026-05-05 18:13 26.68367 -80.09356 21 ft 20 kts 272°
2026-05-05 18:13 26.68376 -80.09535 21 ft 26 kts 274°
2026-05-05 18:13 26.68385 -80.09760 21 ft 31 kts 273°
2026-05-05 18:13 26.68395 -80.09979 21 ft 27 kts 272°
2026-05-05 18:14 26.68404 -80.10186 21 ft 26 kts 273°
2026-05-05 18:14 26.68411 -80.10378 21 ft 24 kts 272°
2026-05-05 18:14 26.68419 -80.10557 21 ft 23 kts 272°
2026-05-05 18:14 26.68426 -80.10722 21 ft 15 kts 272°
2026-05-05 18:15 26.68421 -80.10813 22 ft 10 kts 225°
2026-05-05 18:15 26.68355 -80.10823 20 ft 7 kts 181°
2026-05-05 18:15 26.68317 -80.10813 22 ft 6 kts 116°
2026-05-05 18:15 26.68317 -80.10800 21 ft 0 kts 88°
2026-05-05 18:16 26.68317 -80.10799 21 ft 0 kts 88°
2026-05-05 18:16 26.68317 -80.10759 21 ft 22 kts 90°
2026-05-05 18:16 26.68298 -80.10283 21 ft 98 kts 93°
2026-05-05 18:16 26.68270 -80.09281 56 ft 154 kts 91°
2026-05-05 18:17 26.68153 -80.08037 629 ft 165 kts 92°
2026-05-05 18:17 26.68055 -80.06736 1363 ft 171 kts 92°
2026-05-05 18:17 26.68002 -80.05339 1929 ft 189 kts 82°
2026-05-05 18:17 26.68503 -80.04019 2927 ft 182 kts 55°
2026-05-05 18:18 26.69177 -80.02807 3862 ft 192 kts 69°
2026-05-05 18:18 26.69390 -80.01225 4228 ft 223 kts 88°
2026-05-05 18:18 26.69762 -79.99475 4591 ft 245 kts 56°
2026-05-05 18:18 26.70944 -79.98003 5056 ft 268 kts 44°
2026-05-05 18:19 26.72291 -79.96505 5882 ft 276 kts 45°
2026-05-05 18:19 26.73638 -79.94944 6784 ft 283 kts 46°
2026-05-05 18:19 26.74993 -79.93312 7594 ft 290 kts 47°
2026-05-05 18:19 26.76353 -79.91625 8521 ft 294 kts 46°
2026-05-05 18:20 26.77725 -79.89890 9319 ft 301 kts 46°
2026-05-05 18:20 26.78641 -79.88721 9955 ft 304 kts 47°
2026-05-05 18:20 26.80559 -79.86254 10581 ft 330 kts 47°
2026-05-05 18:20 26.82121 -79.84235 10885 ft 353 kts 47°
2026-05-05 18:21 26.83728 -79.82145 11473 ft 362 kts 47°
2026-05-05 18:21 26.85402 -79.79960 12260 ft 367 kts 47°
2026-05-05 18:21 26.87053 -79.77802 13038 ft 372 kts 46°
2026-05-05 18:21 26.88754 -79.75580 13833 ft 377 kts 46°
2026-05-05 18:22 26.90476 -79.73326 14530 ft 382 kts 46°
2026-05-05 18:22 26.92218 -79.71058 15310 ft 385 kts 44°
2026-05-05 18:22 26.94094 -79.68896 16094 ft 386 kts 39°
2026-05-05 18:22 26.96072 -79.66832 16878 ft 389 kts 38°
2026-05-05 18:23 26.97400 -79.65476 17387 ft 392 kts 38°
2026-05-05 18:23 26.99422 -79.63398 18136 ft 396 kts 38°
2026-05-05 18:23 27.02120 -79.60583 18989 ft 402 kts 38°
2026-05-05 18:23 27.04171 -79.58423 19586 ft 407 kts 38°
2026-05-05 18:24 27.06240 -79.56234 20183 ft 410 kts 38°
2026-05-05 18:24 27.07618 -79.54779 20557 ft 413 kts 37°
2026-05-05 18:24 27.09724 -79.52556 21148 ft 417 kts 37°
2026-05-05 18:24 27.11856 -79.50304 21696 ft 421 kts 37°
2026-05-05 18:25 27.14005 -79.48032 22233 ft 426 kts 37°
2026-05-05 18:25 27.15437 -79.46517 22587 ft 428 kts 37°
2026-05-05 18:25 27.18356 -79.43425 23269 ft 434 kts 36°
2026-05-05 18:25 27.20559 -79.41091 23734 ft 438 kts 36°
2026-05-05 18:26 27.22787 -79.38727 24163 ft 441 kts 36°
2026-05-05 18:26 27.24992 -79.36384 24640 ft 442 kts 36°
2026-05-05 18:26 27.27237 -79.33998 25133 ft 443 kts 36°
2026-05-05 18:26 27.29485 -79.31607 25595 ft 445 kts 36°
2026-05-05 18:27 27.31719 -79.29231 26044 ft 447 kts 36°
2026-05-05 18:27 27.33985 -79.26821 26474 ft 450 kts 36°
2026-05-05 18:27 27.36272 -79.24386 26911 ft 452 kts 36°
2026-05-05 18:27 27.38560 -79.21949 27346 ft 454 kts 36°
2026-05-05 18:28 27.43164 -79.17040 28170 ft 458 kts 36°
2026-05-05 18:28 27.45486 -79.14562 28575 ft 460 kts 36°
2026-05-05 18:28 27.47789 -79.12102 28968 ft 462 kts 36°
2026-05-05 18:29 27.50130 -79.09600 29353 ft 464 kts 36°
2026-05-05 18:29 27.52482 -79.07085 29740 ft 466 kts 36°
2026-05-05 18:29 27.54839 -79.04562 30111 ft 468 kts 36°
2026-05-05 18:29 27.57207 -79.02025 30438 ft 470 kts 36°
2026-05-05 18:30 27.59577 -78.99484 30788 ft 471 kts 36°
2026-05-05 18:30 27.61949 -78.96941 31153 ft 471 kts 35°
2026-05-05 18:30 27.64306 -78.94452 31640 ft 464 kts 31°
2026-05-05 18:30 27.66911 -78.92427 32198 ft 444 kts 19°
2026-05-05 18:31 27.69682 -78.91069 32857 ft 426 kts
2026-05-05 18:31 27.72505 -78.90264 33516 ft 407 kts 359°
2026-05-05 18:31 27.75261 -78.89893 34152 ft 400 kts 358°
2026-05-05 18:31 27.78007 -78.89536 34586 ft 397 kts 358°
2026-05-05 18:32 27.80766 -78.89176 34907 ft 398 kts 358°
2026-05-05 18:32 27.83523 -78.88809 35226 ft 398 kts 358°
2026-05-05 18:32 27.86272 -78.88435 35632 ft 396 kts 358°
2026-05-05 18:32 27.88971 -78.88061 36065 ft 393 kts 358°
2026-05-05 18:33 27.91689 -78.87680 36472 ft 391 kts 358°
2026-05-05 18:33 27.94384 -78.87301 36883 ft 389 kts 358°
2026-05-05 18:33 27.97036 -78.86928 37260 ft 387 kts 358°
2026-05-05 18:33 27.99720 -78.86550 37617 ft 386 kts 358°
2026-05-05 18:34 28.02389 -78.86174 37971 ft 385 kts 358°
2026-05-05 18:34 28.05043 -78.85800 38317 ft 384 kts 358°
2026-05-05 18:34 28.07663 -78.85430 38669 ft 382 kts 358°
2026-05-05 18:34 28.10298 -78.85058 38953 ft 381 kts 357°
2026-05-05 18:35 28.12937 -78.84686 39156 ft 382 kts 357°
2026-05-05 18:35 28.15585 -78.84314 39346 ft 383 kts 357°
2026-05-05 18:35 28.18235 -78.83940 39579 ft 383 kts 357°
2026-05-05 18:35 28.20877 -78.83566 39858 ft 382 kts 357°
2026-05-05 18:36 28.23488 -78.83197 40060 ft 383 kts 357°
2026-05-05 18:36 28.26140 -78.82822 40248 ft 384 kts 357°
2026-05-05 18:36 28.28796 -78.82446 40434 ft 384 kts 357°
2026-05-05 18:36 28.31454 -78.82069 40655 ft 384 kts 357°
2026-05-05 18:37 28.34102 -78.81693 40860 ft 384 kts 357°
2026-05-05 18:37 28.36758 -78.81316 41038 ft 384 kts 357°
2026-05-05 18:37 28.42068 -78.80565 41082 ft 388 kts 357°
2026-05-05 18:38 28.47400 -78.79802 41081 ft 384 kts 357°
2026-05-05 18:38 28.52692 -78.79046 41093 ft 381 kts 357°
2026-05-05 18:39 28.57904 -78.78303 41089 ft 379 kts 356°
2026-05-05 18:39 28.63129 -78.77559 41091 ft 377 kts 356°
2026-05-05 18:40 28.68352 -78.76815 41092 ft 378 kts 356°
2026-05-05 18:40 28.73573 -78.76071 41092 ft 379 kts 356°
2026-05-05 18:41 28.78786 -78.75327 41127 ft 381 kts 356°
2026-05-05 18:41 28.84074 -78.74571 41097 ft 384 kts 356°
2026-05-05 18:42 28.89397 -78.73808 41100 ft 385 kts 357°
2026-05-05 18:42 28.94700 -78.73047 41095 ft 387 kts 357°
2026-05-05 18:43 29.00054 -78.72277 41092 ft 388 kts 357°
2026-05-05 18:43 29.05431 -78.71503 41101 ft 389 kts 357°
2026-05-05 18:44 29.10806 -78.70729 41105 ft 390 kts 356°
2026-05-05 18:44 29.16154 -78.69958 41097 ft 389 kts 356°
2026-05-05 18:45 29.21517 -78.69183 41099 ft 388 kts 356°
2026-05-05 18:45 29.26875 -78.68408 41103 ft 386 kts 356°
2026-05-05 18:46 29.32210 -78.67637 41105 ft 385 kts 356°
2026-05-05 18:46 29.37503 -78.66720 41097 ft 394 kts
2026-05-05 18:47 29.42789 -78.64822 41101 ft 397 kts
2026-05-05 18:47 29.48046 -78.62897 41101 ft 396 kts
2026-05-05 18:48 29.53297 -78.60989 41104 ft 395 kts
2026-05-05 18:48 29.58511 -78.59102 41103 ft 394 kts
2026-05-05 18:49 29.63753 -78.57207 41123 ft 394 kts
2026-05-05 18:49 29.68976 -78.55317 41110 ft 395 kts
2026-05-05 18:50 29.74241 -78.53408 41106 ft 396 kts
2026-05-05 18:50 29.79502 -78.51498 41104 ft 396 kts
2026-05-05 18:51 29.84735 -78.49597 41108 ft 397 kts
2026-05-05 18:51 29.90011 -78.47677 41146 ft 398 kts
2026-05-05 18:52 29.95306 -78.45749 41117 ft 399 kts
2026-05-05 18:52 30.00595 -78.43820 41113 ft 400 kts
2026-05-05 18:53 30.05913 -78.41877 41112 ft 400 kts
2026-05-05 18:53 30.11229 -78.39934 41115 ft 400 kts
2026-05-05 18:54 30.16527 -78.38570 41115 ft 386 kts 356°
2026-05-05 18:54 30.21864 -78.37811 41110 ft 386 kts 356°
2026-05-05 18:55 30.27208 -78.37029 41114 ft 386 kts 356°
2026-05-05 18:55 30.32554 -78.36222 41115 ft 387 kts 357°
2026-05-05 18:56 30.37871 -78.35414 41111 ft 387 kts 357°
2026-05-05 18:56 30.43195 -78.34550 41120 ft 390 kts 359°
2026-05-05 18:57 30.48550 -78.33334 41124 ft 393 kts
2026-05-05 18:57 30.53880 -78.32061 41113 ft 393 kts
2026-05-05 18:58 30.59241 -78.30800 41117 ft 392 kts
2026-05-05 18:58 30.64620 -78.29548 41117 ft 392 kts
2026-05-05 18:59 30.69941 -78.28313 41116 ft 392 kts
2026-05-05 18:59 30.75303 -78.27068 41134 ft 393 kts
2026-05-05 19:00 30.80685 -78.25815 41124 ft 393 kts
2026-05-05 19:00 30.86020 -78.24571 41121 ft 393 kts
2026-05-05 19:01 30.91380 -78.23321 41118 ft 393 kts
2026-05-05 19:01 30.96744 -78.22088 41118 ft 392 kts 360°
2026-05-05 19:02 31.02086 -78.20907 41130 ft 392 kts 360°
2026-05-05 19:02 31.07453 -78.19718 41127 ft 393 kts 360°
2026-05-05 19:03 31.12837 -78.18519 41126 ft 393 kts 360°
2026-05-05 19:03 31.18207 -78.17319 41125 ft 393 kts 360°
2026-05-05 19:04 31.23594 -78.16114 41125 ft 393 kts 360°
2026-05-05 19:04 31.28957 -78.14913 41131 ft 394 kts
2026-05-05 19:05 31.34361 -78.13699 41129 ft 395 kts
2026-05-05 19:05 31.39761 -78.12486 41129 ft 395 kts
2026-05-05 19:06 31.45170 -78.11314 41128 ft 393 kts 358°
2026-05-05 19:06 31.50548 -78.10401 41128 ft 392 kts 357°
2026-05-05 19:07 31.55045 -78.09675 41134 ft 393 kts 358°
2026-05-05 19:07 31.61390 -78.08621 41131 ft 394 kts 358°
2026-05-05 19:08 31.66793 -78.07702 41126 ft 394 kts 358°
2026-05-05 19:08 31.72230 -78.06770 41125 ft 394 kts 358°
2026-05-05 19:09 31.77668 -78.05835 41128 ft 394 kts 358°
2026-05-05 19:09 31.83094 -78.04902 41135 ft 395 kts 358°
2026-05-05 19:10 31.88541 -78.03963 41132 ft 395 kts 358°
2026-05-05 19:10 31.93959 -78.03029 41132 ft 395 kts 358°
2026-05-05 19:11 31.99406 -78.02088 41128 ft 395 kts 358°
2026-05-05 19:11 32.03935 -78.01304 41130 ft 395 kts 358°
2026-05-05 19:12 32.10274 -78.00208 41142 ft 396 kts 358°
2026-05-05 19:12 32.14823 -77.99420 41121 ft 396 kts 358°
2026-05-05 19:13 32.20282 -77.98473 41129 ft 396 kts 358°
2026-05-05 19:13 32.25739 -77.97524 41131 ft 396 kts 358°
2026-05-05 19:14 32.31196 -77.96575 41160 ft 396 kts 358°
2026-05-05 19:14 32.36620 -77.95632 41180 ft 396 kts 359°
2026-05-05 19:15 32.42126 -77.94675 41144 ft 401 kts 359°
2026-05-05 19:15 32.47646 -77.93713 41138 ft 404 kts 359°
2026-05-05 19:16 32.53242 -77.92734 41132 ft 406 kts 359°
2026-05-05 19:16 32.58817 -77.91757 41148 ft 407 kts 359°
2026-05-05 19:17 32.64441 -77.90771 41139 ft 408 kts 359°
2026-05-05 19:17 32.70059 -77.89784 41128 ft 407 kts 359°
2026-05-05 19:18 32.75625 -77.88805 41130 ft 406 kts 359°
2026-05-05 19:18 32.81214 -77.87821 41124 ft 404 kts 359°
2026-05-05 19:19 32.86756 -77.86845 41127 ft 403 kts 359°
2026-05-05 19:19 32.92304 -77.85867 41129 ft 401 kts 359°